GW0819 Weather Reports


Display with metric or nautical units.
time (UTC)temp
F
wind
direction
speed
MPH
gust
MPH
rain 1hr
in
rain 24hr
in
rain mn
in
humidity
%
barometer
mb
20260510041259 73 26 4.0 5.0 0.00 0.00 0.00 21 1007.3
20260510040757 72 9 3.0 3.0 0.00 0.00 0.00 22 1007.3
20260510040248 73 294 0.0 1.0 0.00 0.00 0.00 21 1007.3
20260510035743 72 302 2.0 2.0 0.00 0.00 0.00 22 1007.2
20260510035239 73 305 0.0 3.0 0.00 0.00 0.00 21 1007.0
20260510034735 72 295 2.0 3.0 0.00 0.00 0.00 21 1006.7
20260510034233 73 195 0.0 0.0 0.00 0.00 0.00 21 1007.0
20260510033729 73 179 2.0 4.0 0.00 0.00 0.00 21 1007.1
20260510033227 73 208 4.0 5.0 0.00 0.00 0.00 21 1007.0
20260510032723 72 225 5.0 5.0 0.00 0.00 0.00 22 1006.9
20260510032219 73 208 4.0 5.0 0.00 0.00 0.00 22 1006.7
20260510031714 73 207 5.0 6.0 0.00 0.00 0.00 21 1006.5
20260510031210 75 223 6.0 7.0 0.00 0.00 0.00 20 1006.7
20260510030709 74 226 4.0 5.0 0.00 0.00 0.00 20 1006.2
20260510030208 76 243 4.0 4.0 0.00 0.00 0.00 20 1006.4
20260510025705 76 253 2.0 3.0 0.00 0.00 0.00 20 1006.3
20260510025202 77 292 2.0 3.0 0.00 0.00 0.00 19 1006.5
20260510024659 77 283 3.0 4.0 0.00 0.00 0.00 18 1006.3
20260510024155 77 257 3.0 4.0 0.00 0.00 0.00 18 1006.3
20260510023651 78 215 4.0 4.0 0.00 0.00 0.00 18 1006.1
20260510023148 78 200 5.0 8.0 0.00 0.00 0.00 17 1006.2
20260510022643 79 210 10.0 13.0 0.00 0.00 0.00 17 1006.2
20260510022139 78 204 8.0 9.0 0.00 0.00 0.00 17 1005.8
20260510021634 78 204 7.0 9.0 0.00 0.00 0.00 17 1005.6
20260510021132 78 216 6.0 8.0 0.00 0.00 0.00 17 1005.8
20260510020626 77 249 8.0 9.0 0.00 0.00 0.00 17 1005.8
20260510020121 79 225 6.0 7.0 0.00 0.00 0.00 16 1005.6
20260510015618 80 242 7.0 10.0 0.00 0.00 0.00 16 1005.6
20260510015114 82 234 11.0 18.0 0.00 0.00 0.00 15 1005.7
20260510014610 79 244 11.0 12.0 0.00 0.00 0.00 17 1005.6
20260510014108 81 245 11.0 13.0 0.00 0.00 0.00 15 1005.4
20260510013601 82 254 10.0 13.0 0.00 0.00 0.00 15 1005.7
20260510013057 84 260 15.0 19.0 0.00 0.00 0.00 14 1005.2
20260510012551 85 280 20.0 27.0 0.00 0.00 0.00 13 1005.2
20260510012048 84 273 15.0 21.0 0.00 0.00 0.00 13 1005.3
20260510011548 84 243 29.0 33.0 0.00 0.00 0.00 14 1005.4
20260510011044 84 245 26.0 34.0 0.00 0.00 0.00 13 1005.3
20260510010541 82 244 15.0 22.0 0.00 0.00 0.00 15 1005.5
20260510010038 82 231 5.0 7.0 0.00 0.00 0.00 16 1005.5
20260510005533 82 229 9.0 10.0 0.00 0.00 0.00 16 1005.7
20260510005031 83 233 10.0 13.0 0.00 0.00 0.00 15 1005.5
20260510004529 82 230 9.0 11.0 0.00 0.00 0.00 16 1005.6
20260510004026 84 239 11.0 13.0 0.00 0.00 0.00 15 1005.7
20260510003517 84 256 8.0 9.0 0.00 0.00 0.00 15 1005.6
20260510003013 84 267 9.0 15.0 0.00 0.00 0.00 14 1005.4
20260510002508 85 280 4.0 17.0 0.00 0.00 0.00 14 1005.4
20260510002006 86 271 15.0 29.0 0.00 0.00 0.00 14 1005.8
20260510001503 86 227 11.0 19.0 0.00 0.00 0.00 15 1005.7
20260510001001 86 230 23.0 23.0 0.00 0.00 0.00 15 1005.7
20260510000456 85 240 22.0 31.0 0.00 0.00 0.00 15 1005.6
20260509235953 85 233 27.0 32.0 0.00 0.00 0.00 15 1005.5
20260509235450 86 189 10.0 18.0 0.00 0.00 0.00 14 1005.2
20260509234946 86 233 8.0 11.0 0.00 0.00 0.00 14 1005.6
20260509234443 86 206 3.0 9.0 0.00 0.00 0.00 14 1005.4
20260509233941 86 225 13.0 22.0 0.00 0.00 0.00 14 1005.4
20260509233438 87 291 29.0 32.0 0.00 0.00 0.00 13 1005.5
20260509232934 87 220 18.0 21.0 0.00 0.00 0.00 13 1005.3
20260509232432 87 247 12.0 18.0 0.00 0.00 0.00 14 1005.4
20260509231927 87 245 12.0 14.0 0.00 0.00 0.00 14 1005.3
20260509231424 87 231 12.0 22.0 0.00 0.00 0.00 14 1005.4
20260509230923 87 219 19.0 30.0 0.00 0.00 0.00 13 1005.6
20260509230419 90 229 27.0 29.0 0.00 0.00 0.00 13 1005.3
20260509225915 90 249 17.0 22.0 0.00 0.00 0.00 12 1005.4
20260509225412 88 252 18.0 30.0 0.00 0.00 0.00 12 1005.4
20260509224908 89 254 17.0 22.0 0.00 0.00 0.00 13 1005.6
20260509224403 89 232 15.0 20.0 0.00 0.00 0.00 12 1005.6
20260509223900 89 231 13.0 18.0 0.00 0.00 0.00 12 1005.4
20260509223351 87 286 11.0 16.0 0.00 0.00 0.00 12 1005.5
20260509222848 87 316 9.0 18.0 0.00 0.00 0.00 13 1005.3
20260509222343 87 304 8.0 20.0 0.00 0.00 0.00 12 1005.7
20260509221838 87 302 11.0 22.0 0.00 0.00 0.00 12 1005.8
20260509221336 87 358 6.0 9.0 0.00 0.00 0.00 12 1005.7
20260509220831 87 306 6.0 11.0 0.00 0.00 0.00 12 1005.8
20260509220328 87 337 8.0 11.0 0.00 0.00 0.00 12 1005.6
20260509215823 87 279 12.0 17.0 0.00 0.00 0.00 12 1005.8
20260509215320 87 319 15.0 19.0 0.00 0.00 0.00 12 1005.8
20260509214817 87 319 10.0 14.0 0.00 0.00 0.00 12 1006.1
20260509214314 89 317 13.0 20.0 0.00 0.00 0.00 11 1006.2
20260509213811 88 273 11.0 20.0 0.00 0.00 0.00 12 1006.3
20260509213307 87 277 17.0 21.0 0.00 0.00 0.00 12 1006.2
20260509212804 88 259 17.0 18.0 0.00 0.00 0.00 12 1006.3
20260509212305 90 311 22.0 25.0 0.00 0.00 0.00 11 1006.6
20260509211757 89 293 17.0 23.0 0.00 0.00 0.00 11 1006.5
20260509211253 89 286 23.0 33.0 0.00 0.00 0.00 11 1006.5
20260509210750 90 288 26.0 30.0 0.00 0.00 0.00 11 1006.6
20260509210248 87 256 18.0 26.0 0.00 0.00 0.00 12 1007.0
20260509205747 89 283 13.0 21.0 0.00 0.00 0.00 11 1007.2
20260509205242 87 319 15.0 18.0 0.00 0.00 0.00 12 1007.0
20260509204738 88 239 23.0 26.0 0.00 0.00 0.00 11 1007.1
20260509204235 88 272 19.0 23.0 0.00 0.00 0.00 12 1007.1
20260509203731 87 281 11.0 24.0 0.00 0.00 0.00 12 1007.3
20260509203229 87 274 5.0 17.0 0.00 0.00 0.00 13 1007.2
20260509202725 88 306 15.0 20.0 0.00 0.00 0.00 12 1007.4
20260509202221 88 321 18.0 26.0 0.00 0.00 0.00 12 1007.4
20260509201715 88 312 16.0 23.0 0.00 0.00 0.00 12 1007.7
20260509201212 87 279 19.0 28.0 0.00 0.00 0.00 12 1007.7
20260509200709 87 278 15.0 30.0 0.00 0.00 0.00 12 1007.8
20260509200203 86 310 15.0 17.0 0.00 0.00 0.00 12 1007.9
20260509195659 87 279 11.0 25.0 0.00 0.00 0.00 12 1008.0
20260509195155 87 292 18.0 29.0 0.00 0.00 0.00 12 1007.9
20260509194649 85 304 12.0 14.0 0.00 0.00 0.00 14 1007.9
20260509194146 86 281 15.0 20.0 0.00 0.00 0.00 14 1008.1
20260509193642 87 253 21.0 28.0 0.00 0.00 0.00 14 1008.1
20260509193138 86 255 16.0 26.0 0.00 0.00 0.00 13 1008.1
20260509192635 87 277 12.0 18.0 0.00 0.00 0.00 14 1008.1
20260509192129 86 249 10.0 22.0 0.00 0.00 0.00 13 1008.2
20260509191624 86 285 20.0 25.0 0.00 0.00 0.00 12 1008.2
20260509191121 87 259 25.0 25.0 0.00 0.00 0.00 15 1008.2
20260509190617 87 257 11.0 19.0 0.00 0.00 0.00 15 1008.6
20260509190115 87 266 24.0 26.0 0.00 0.00 0.00 15 1008.6
20260509185612 86 268 12.0 17.0 0.00 0.00 0.00 16 1008.6
20260509185108 86 297 10.0 26.0 0.00 0.00 0.00 15 1008.7
20260509184607 85 267 14.0 20.0 0.00 0.00 0.00 16 1008.4
20260509184103 85 260 20.0 25.0 0.00 0.00 0.00 15 1008.8
20260509183558 85 252 21.0 27.0 0.00 0.00 0.00 16 1008.8
20260509183054 84 262 21.0 24.0 0.00 0.00 0.00 16 1009.2
20260509182551 84 267 18.0 28.0 0.00 0.00 0.00 16 1009.0
20260509182048 84 279 17.0 19.0 0.00 0.00 0.00 17 1009.4
20260509181546 84 240 20.0 24.0 0.00 0.00 0.00 17 1009.2
20260509181043 83 269 14.0 23.0 0.00 0.00 0.00 17 1009.2
20260509180538 83 248 20.0 24.0 0.00 0.00 0.00 17 1009.2
20260509180036 84 264 15.0 25.0 0.00 0.00 0.00 17 1009.5
20260509175531 83 252 11.0 22.0 0.00 0.00 0.00 18 1009.4
20260509175029 84 255 16.0 22.0 0.00 0.00 0.00 19 1009.0
20260509174526 84 247 14.0 26.0 0.00 0.00 0.00 19 1009.6
20260509174020 82 253 21.0 24.0 0.00 0.00 0.00 21 1009.5
20260509173515 81 255 14.0 17.0 0.00 0.00 0.00 23 1009.9
20260509173011 82 254 14.0 21.0 0.00 0.00 0.00 22 1009.9
20260509172508 80 247 16.0 22.0 0.00 0.00 0.00 23 1009.8
20260509172004 80 249 18.0 19.0 0.00 0.00 0.00 24 1010.0
20260509171500 79 232 13.0 22.0 0.00 0.00 0.00 24 1010.3
20260509170957 79 244 23.0 24.0 0.00 0.00 0.00 23 1010.3
20260509170452 80 245 17.0 24.0 0.00 0.00 0.00 23 1010.1
20260509165948 79 249 17.0 30.0 0.00 0.00 0.00 24 1010.3
20260509165447 77 238 20.0 25.0 0.00 0.00 0.00 25 1010.3
20260509164943 76 228 12.0 24.0 0.00 0.00 0.00 27 1010.3
20260509164439 77 237 19.0 26.0 0.00 0.00 0.00 26 1010.8
20260509163935 76 243 22.0 24.0 0.00 0.00 0.00 26 1010.6
20260509163433 76 250 20.0 26.0 0.00 0.00 0.00 27 1010.5
20260509162932 76 249 17.0 27.0 0.00 0.00 0.00 27 1010.5
20260509162431 76 242 15.0 26.0 0.00 0.00 0.00 26 1010.5
20260509161926 76 248 19.0 28.0 0.00 0.00 0.00 26 1010.5
20260509161423 75 244 20.0 22.0 0.00 0.00 0.00 27 1010.3
20260509160918 76 244 21.0 22.0 0.00 0.00 0.00 27 1010.3
20260509160414 75 217 17.0 24.0 0.00 0.00 0.00 28 1010.0
20260509155910 75 221 12.0 21.0 0.00 0.00 0.00 28 1010.0
20260509155407 75 200 12.0 20.0 0.00 0.00 0.00 28 1010.1
20260509154903 74 210 15.0 17.0 0.00 0.00 0.00 29 1010.1
20260509154359 73 208 15.0 25.0 0.00 0.00 0.00 29 1010.0
20260509153856 73 203 16.0 20.0 0.00 0.00 0.00 31 1010.1
20260509153354 72 184 14.0 21.0 0.00 0.00 0.00 31 1010.3
20260509152850 72 194 14.0 22.0 0.00 0.00 0.00 32 1010.5
20260509152346 72 193 20.0 21.0 0.00 0.00 0.00 32 1010.4
20260509151844 71 189 15.0 20.0 0.00 0.00 0.00 33 1010.5
20260509151339 71 165 18.0 20.0 0.00 0.00 0.00 34 1010.5
20260509150838 71 189 15.0 22.0 0.00 0.00 0.00 34 1010.4
20260509150336 69 180 13.0 19.0 0.00 0.00 0.00 36 1010.5
20260509145833 69 185 13.0 22.0 0.00 0.00 0.00 36 1010.7
20260509145327 68 152 12.0 18.0 0.00 0.00 0.00 38 1010.9
20260509144824 67 151 11.0 20.0 0.00 0.00 0.00 39 1010.8
20260509144321 68 144 13.0 19.0 0.00 0.00 0.00 39 1010.8
20260509143818 66 164 18.0 24.0 0.00 0.00 0.00 40 1010.9
20260509143316 66 165 15.0 21.0 0.00 0.00 0.00 40 1010.7
20260509142811 65 158 17.0 23.0 0.00 0.00 0.00 42 1010.8
20260509142308 66 159 18.0 20.0 0.00 0.00 0.00 42 1010.8
20260509141803 65 155 12.0 22.0 0.00 0.00 0.00 43 1010.9
20260509141300 65 157 13.0 19.0 0.00 0.00 0.00 44 1011.3
20260509140757 65 135 11.0 15.0 0.00 0.00 0.00 44 1010.7
20260509140254 64 132 13.0 16.0 0.00 0.00 0.00 46 1011.4
20260509135752 63 147 13.0 15.0 0.00 0.00 0.00 46 1011.2
20260509135249 63 135 11.0 15.0 0.00 0.00 0.00 47 1011.1
20260509134746 63 137 7.0 12.0 0.00 0.00 0.00 46 1011.2
20260509134244 63 138 12.0 15.0 0.00 0.00 0.00 46 1011.2
20260509133740 63 112 11.0 12.0 0.00 0.00 0.00 45 1011.3
20260509133237 62 126 6.0 8.0 0.00 0.00 0.00 44 1011.3
20260509132736 62 102 5.0 5.0 0.00 0.00 0.00 44 1010.9
20260509132234 61 91 4.0 7.0 0.00 0.00 0.00 44 1011.1
20260509131730 61 82 4.0 5.0 0.00 0.00 0.00 44 1010.9
20260509131227 60 79 3.0 6.0 0.00 0.00 0.00 45 1011.2
20260509130723 58 67 3.0 5.0 0.00 0.00 0.00 46 1010.9
20260509130219 57 62 3.0 4.0 0.00 0.00 0.00 46 1011.1
20260509125716 56 56 3.0 4.0 0.00 0.00 0.00 47 1010.6
20260509125213 56 58 3.0 5.0 0.00 0.00 0.00 47 1010.7
20260509124709 54 36 5.0 6.0 0.00 0.00 0.00 49 1010.9
20260509124206 54 12 5.0 5.0 0.00 0.00 0.00 48 1010.8
20260509123704 55 40 4.0 5.0 0.00 0.00 0.00 48 1010.7
20260509123201 54 38 4.0 5.0 0.00 0.00 0.00 49 1010.7
20260509122656 54 30 4.0 6.0 0.00 0.00 0.00 49 1010.9
20260509122153 52 18 4.0 6.0 0.00 0.00 0.00 52 1010.7
20260509121650 51 2 4.0 5.0 0.00 0.00 0.00 52 1010.7
20260509121148 51 4 5.0 5.0 0.00 0.00 0.00 51 1010.5
20260509120646 53 23 4.0 6.0 0.00 0.00 0.00 51 1010.6
20260509120144 52 21 5.0 5.0 0.00 0.00 0.00 51 1010.6
20260509115641 51 10 4.0 4.0 0.00 0.00 0.00 53 1010.7
20260509115138 51 5 3.0 4.0 0.00 0.00 0.00 53 1010.3
20260509114636 50 0 3.0 4.0 0.00 0.00 0.00 53 1010.5
20260509114135 50 353 4.0 5.0 0.00 0.00 0.00 53 1010.5
20260509113633 50 7 4.0 5.0 0.00 0.00 0.00 53 1010.3
20260509113130 51 9 5.0 5.0 0.00 0.00 0.00 51 1010.4
20260509112627 53 28 5.0 6.0 0.00 0.00 0.00 50 1010.3
20260509112124 52 41 5.0 6.0 0.00 0.00 0.00 50 1010.3
20260509111621 51 51 5.0 5.0 0.00 0.00 0.00 51 1010.5
20260509111117 52 28 6.0 6.0 0.00 0.00 0.00 51 1010.6
20260509110615 53 23 6.0 6.0 0.00 0.00 0.00 49 1010.5
20260509110112 53 39 4.0 5.0 0.00 0.00 0.00 50 1010.3
20260509105610 53 44 4.0 5.0 0.00 0.00 0.00 51 1010.1
20260509105107 53 67 4.0 5.0 0.00 0.00 0.00 50 1010.4
20260509104604 53 78 4.0 5.0 0.00 0.00 0.00 50 1010.4
20260509104101 53 71 3.0 5.0 0.00 0.00 0.00 50 1010.5
20260509103559 53 78 4.0 5.0 0.00 0.00 0.00 49 1010.5
20260509103057 53 82 5.0 6.0 0.00 0.00 0.00 49 1010.7
20260509102554 53 64 5.0 5.0 0.00 0.00 0.00 49 1010.8
20260509102050 55 56 5.0 6.0 0.00 0.00 0.00 47 1010.7
20260509101547 55 67 3.0 5.0 0.00 0.00 0.00 48 1010.6
20260509101044 55 70 4.0 4.0 0.00 0.00 0.00 47 1010.8
20260509100541 55 81 4.0 5.0 0.00 0.00 0.00 48 1010.9
20260509100038 55 81 4.0 4.0 0.00 0.00 0.00 47 1010.7
20260509095535 56 89 4.0 5.0 0.00 0.00 0.00 47 1010.6
20260509095032 55 89 3.0 4.0 0.00 0.00 0.00 47 1010.6
20260509094528 55 103 2.0 3.0 0.00 0.00 0.00 47 1010.6
20260509094026 55 113 2.0 3.0 0.00 0.00 0.00 48 1010.5
20260509093524 54 93 0.0 2.0 0.00 0.00 0.00 49 1010.5
20260509093021 55 77 0.0 3.0 0.00 0.00 0.00 48 1010.6
20260509092519 55 75 3.0 3.0 0.00 0.00 0.00 48 1010.7
20260509092017 55 65 3.0 4.0 0.00 0.00 0.00 47 1010.5
20260509091514 55 62 4.0 5.0 0.00 0.00 0.00 47 1010.5
20260509091011 55 72 3.0 4.0 0.00 0.00 0.00 47 1010.7
20260509090508 55 76 3.0 3.0 0.00 0.00 0.00 46 1010.7
20260509090006 56 87 3.0 5.0 0.00 0.00 0.00 46 1010.7
20260509085503 56 85 4.0 5.0 0.00 0.00 0.00 46 1010.7
20260509084959 56 77 4.0 5.0 0.00 0.00 0.00 46 1010.7
20260509084456 56 83 4.0 5.0 0.00 0.00 0.00 46 1010.5
20260509083953 56 96 3.0 4.0 0.00 0.00 0.00 45 1010.8
20260509083450 56 105 4.0 5.0 0.00 0.00 0.00 45 1010.8
20260509082946 56 109 5.0 6.0 0.00 0.00 0.00 45 1010.4
20260509082444 56 104 5.0 6.0 0.00 0.00 0.00 45 1010.6
20260509081941 57 109 6.0 9.0 0.00 0.00 0.00 44 1010.8
20260509081438 57 116 7.0 8.0 0.00 0.00 0.00 45 1010.6
20260509080935 57 120 7.0 10.0 0.00 0.00 0.00 44 1010.7
20260509080433 57 123 8.0 10.0 0.00 0.00 0.00 44 1010.7
20260509075931 57 115 9.0 11.0 0.00 0.00 0.00 44 1010.7
20260509075428 57 117 9.0 11.0 0.00 0.00 0.00 44 1010.8
20260509074926 57 115 8.0 10.0 0.00 0.00 0.00 44 1010.8
20260509074423 57 113 9.0 11.0 0.00 0.00 0.00 44 1010.7
20260509073919 57 117 8.0 12.0 0.00 0.00 0.00 43 1010.9
20260509073416 57 115 9.0 12.0 0.00 0.00 0.00 43 1010.8
20260509072912 57 114 10.0 12.0 0.00 0.00 0.00 43 1010.9
20260509072409 58 111 8.0 11.0 0.00 0.00 0.00 43 1011.1
20260509071905 58 112 10.0 11.0 0.00 0.00 0.00 42 1011.2
20260509071403 58 108 9.0 11.0 0.00 0.00 0.00 42 1011.1
20260509070900 58 113 8.0 11.0 0.00 0.00 0.00 42 1010.8
20260509070356 58 117 9.0 9.0 0.00 0.00 0.00 41 1010.9
20260509065852 59 112 7.0 10.0 0.00 0.00 0.00 41 1010.9
20260509065349 58 103 6.0 7.0 0.00 0.00 0.00 41 1010.6
20260509064845 58 108 6.0 8.0 0.00 0.00 0.00 41 1010.5
20260509064343 59 108 8.0 9.0 0.00 0.00 0.00 41 1010.8
20260509063840 59 111 7.0 8.0 0.00 0.00 0.00 41 1010.4
20260509063336 59 109 8.0 11.0 0.00 0.00 0.00 40 1010.4
20260509062833 59 109 9.0 11.0 0.00 0.00 0.00 40 1010.0
20260509062330 60 111 8.0 11.0 0.00 0.00 0.00 39 1010.5
20260509061827 60 113 10.0 11.0 0.00 0.00 0.00 39 1010.0
20260509061326 61 108 9.0 12.0 0.00 0.00 0.00 38 1010.4
20260509060822 61 107 9.0 14.0 0.00 0.00 0.00 38 1010.1
20260509060319 61 112 10.0 14.0 0.00 0.00 0.00 38 1009.9
20260509055815 61 110 8.0 13.0 0.00 0.00 0.00 38 1009.8
20260509055310 61 103 9.0 12.0 0.00 0.00 0.00 38 1010.0
20260509054808 61 107 9.0 12.0 0.00 0.00 0.00 37 1010.0
20260509054304 62 106 10.0 12.0 0.00 0.00 0.00 37 1010.1
20260509053803 62 104 8.0 11.0 0.00 0.00 0.00 36 1009.9
20260509053259 63 108 9.0 11.0 0.00 0.00 0.00 36 1010.1
20260509052757 63 104 9.0 11.0 0.00 0.00 0.00 35 1009.9
20260509052255 63 100 7.0 12.0 0.00 0.00 0.00 35 1010.0
20260509051752 64 108 13.0 15.0 0.00 0.00 0.00 35 1010.0
20260509051250 64 107 10.0 14.0 0.00 0.00 0.00 35 1009.8
20260509050746 63 102 11.0 15.0 0.00 0.00 0.00 35 1009.9
20260509050243 64 107 10.0 14.0 0.00 0.00 0.00 34 1009.8
20260509045740 64 110 12.0 14.0 0.00 0.00 0.00 34 1009.8
20260509045237 64 102 9.0 13.0 0.00 0.00 0.00 34 1009.9
20260509044734 64 106 9.0 12.0 0.00 0.00 0.00 34 1010.0
20260509044232 64 104 8.0 11.0 0.00 0.00 0.00 34 1009.8
20260509043728 64 104 9.0 11.0 0.00 0.00 0.00 33 1010.0
20260509043224 64 102 10.0 13.0 0.00 0.00 0.00 33 1009.8
20260509042721 65 101 11.0 16.0 0.00 0.00 0.00 32 1009.6
20260509042217 65 96 10.0 14.0 0.00 0.00 0.00 32 1009.8
20260509041714 65 97 10.0 13.0 0.00 0.00 0.00 32 1010.0